| time (UTC) | temp F | wind direction | speed MPH | gust MPH | rain 1hr in | rain 24hr in | rain mn in | humidity % | barometer mb |
| 20260906224852 | 68 | 209 | 2.0 | 3.0 | 0.00 | 0.00 | 0.00 | 66 | 1015.5 |
| 20260906224349 | 68 | 69 | 1.0 | 2.0 | 0.00 | 0.00 | 0.00 | 66 | 1015.7 |
| 20260906223845 | 68 | 217 | 0.0 | 2.0 | 0.00 | 0.00 | 0.00 | 67 | 1015.8 |
| 20260906223341 | 68 | 286 | 1.0 | 2.0 | 0.00 | 0.00 | 0.00 | 67 | 1015.9 |
| 20260906222839 | 68 | 277 | 1.0 | 3.0 | 0.00 | 0.00 | 0.00 | 67 | 1015.9 |
| 20260906222338 | 68 | 281 | 2.0 | 2.0 | 0.00 | 0.00 | 0.00 | 67 | 1015.9 |
| 20260906221836 | 68 | 248 | 2.0 | 7.0 | 0.00 | 0.00 | 0.00 | 67 | 1015.8 |
| 20260906221336 | 68 | 79 | 1.0 | 2.0 | 0.00 | 0.00 | 0.00 | 67 | 1015.6 |
| 20260906220831 | 68 | 248 | 0.0 | 2.0 | 0.00 | 0.00 | 0.00 | 67 | 1016.0 |
| 20260906220326 | 68 | 195 | 1.0 | 3.0 | 0.00 | 0.00 | 0.00 | 67 | 1016.1 |
| 20260906215825 | 68 | 230 | 1.0 | 2.0 | 0.00 | 0.00 | 0.00 | 67 | 1015.8 |
| 20260906215320 | 68 | 26 | 2.0 | 4.0 | 0.00 | 0.00 | 0.00 | 68 | 1015.9 |
| 20260906214819 | 67 | 203 | 2.0 | 4.0 | 0.00 | 0.00 | 0.00 | 68 | 1015.8 |
| 20260906214314 | 67 | 3 | 2.0 | 3.0 | 0.00 | 0.00 | 0.00 | 69 | 1015.8 |
| 20260906213813 | 67 | 346 | 2.0 | 4.0 | 0.00 | 0.00 | 0.00 | 68 | 1015.8 |
| 20260906213312 | 67 | 356 | 2.0 | 3.0 | 0.00 | 0.00 | 0.00 | 69 | 1015.9 |
| 20260906212810 | 67 | 228 | 1.0 | 7.0 | 0.00 | 0.00 | 0.00 | 69 | 1015.8 |
| 20260906212306 | 68 | 162 | 0.0 | 2.0 | 0.00 | 0.00 | 0.00 | 69 | 1015.9 |
| 20260906211805 | 67 | 168 | 0.0 | 1.0 | 0.00 | 0.00 | 0.00 | 70 | 1016.1 |
| 20260906211300 | 67 | 352 | 3.0 | 3.0 | 0.00 | 0.00 | 0.00 | 69 | 1015.9 |
| 20260906210755 | 67 | 336 | 2.0 | 3.0 | 0.00 | 0.00 | 0.00 | 71 | 1016.0 |
| 20260906210255 | 67 | 323 | 3.0 | 7.0 | 0.00 | 0.00 | 0.00 | 71 | 1015.8 |
| 20260906205755 | 67 | 318 | 4.0 | 4.0 | 0.00 | 0.00 | 0.00 | 71 | 1016.1 |
| 20260906205252 | 67 | 303 | 2.0 | 3.0 | 0.00 | 0.00 | 0.00 | 72 | 1016.0 |
| 20260906204748 | 66 | 219 | 0.0 | 2.0 | 0.00 | 0.00 | 0.00 | 73 | 1016.0 |
| 20260906204247 | 65 | 211 | 1.0 | 2.0 | 0.00 | 0.00 | 0.00 | 74 | 1016.0 |
| 20260906203746 | 65 | 351 | 3.0 | 4.0 | 0.00 | 0.00 | 0.00 | 75 | 1016.2 |
| 20260906203242 | 65 | 281 | 1.0 | 4.0 | 0.00 | 0.00 | 0.00 | 75 | 1016.1 |
| 20260906202739 | 65 | 76 | 4.0 | 6.0 | 0.00 | 0.00 | 0.00 | 75 | 1016.1 |
| 20260906202238 | 66 | 353 | 3.0 | 6.0 | 0.00 | 0.00 | 0.00 | 74 | 1016.2 |
| 20260906201733 | 66 | 353 | 4.0 | 9.0 | 0.00 | 0.00 | 0.00 | 73 | 1016.1 |
| 20260906201232 | 68 | 54 | 2.0 | 6.0 | 0.00 | 0.00 | 0.00 | 70 | 1016.4 |
| 20260906200728 | 68 | 4 | 4.0 | 6.0 | 0.00 | 0.00 | 0.00 | 68 | 1016.2 |
| 20260906200224 | 68 | 25 | 1.0 | 4.0 | 0.00 | 0.00 | 0.00 | 68 | 1016.4 |
| 20260906195719 | 68 | 298 | 1.0 | 4.0 | 0.00 | 0.00 | 0.00 | 68 | 1016.5 |
| 20260906195216 | 68 | 351 | 2.0 | 4.0 | 0.00 | 0.00 | 0.00 | 68 | 1016.4 |
| 20260906194711 | 68 | 355 | 4.0 | 7.0 | 0.00 | 0.00 | 0.00 | 68 | 1016.5 |
| 20260906194206 | 68 | 131 | 0.0 | 2.0 | 0.00 | 0.00 | 0.00 | 66 | 1016.6 |
| 20260906193701 | 69 | 19 | 2.0 | 7.0 | 0.00 | 0.00 | 0.00 | 66 | 1016.7 |
| 20260906193156 | 70 | 51 | 1.0 | 3.0 | 0.00 | 0.00 | 0.00 | 63 | 1016.8 |
| 20260906192652 | 70 | 50 | 1.0 | 4.0 | 0.00 | 0.00 | 0.00 | 63 | 1016.5 |
| 20260906192152 | 69 | 53 | 0.0 | 3.0 | 0.00 | 0.00 | 0.00 | 63 | 1016.7 |
| 20260906191646 | 68 | 154 | 1.0 | 2.0 | 0.00 | 0.00 | 0.00 | 65 | 1016.8 |
| 20260906191146 | 68 | 322 | 2.0 | 3.0 | 0.00 | 0.00 | 0.00 | 64 | 1016.8 |
| 20260906190640 | 69 | 38 | 1.0 | 2.0 | 0.00 | 0.00 | 0.00 | 64 | 1016.9 |
| 20260906190135 | 67 | 165 | 0.0 | 1.0 | 0.00 | 0.00 | 0.00 | 66 | 1017.1 |
| 20260906185634 | 66 | 145 | 1.0 | 6.0 | 0.00 | 0.00 | 0.00 | 68 | 1017.1 |
| 20260906185133 | 65 | 32 | 3.0 | 4.0 | 0.00 | 0.00 | 0.00 | 70 | 1016.9 |
| 20260906184627 | 65 | 58 | 2.0 | 3.0 | 0.00 | 0.00 | 0.00 | 70 | 1017.2 |
| 20260906184124 | 64 | 23 | 2.0 | 4.0 | 0.00 | 0.00 | 0.00 | 71 | 1017.5 |
| 20260906183619 | 64 | 355 | 4.0 | 6.0 | 0.00 | 0.00 | 0.00 | 71 | 1017.5 |
| 20260906183115 | 64 | 13 | 1.0 | 6.0 | 0.00 | 0.00 | 0.00 | 71 | 1017.7 |
| 20260906182609 | 64 | 304 | 2.0 | 3.0 | 0.00 | 0.00 | 0.00 | 72 | 1017.5 |
| 20260906182106 | 64 | 346 | 2.0 | 4.0 | 0.00 | 0.00 | 0.00 | 72 | 1017.8 |
| 20260906181606 | 63 | 42 | 1.0 | 4.0 | 0.00 | 0.00 | 0.00 | 73 | 1017.7 |
| 20260906181102 | 62 | 341 | 3.0 | 4.0 | 0.00 | 0.00 | 0.00 | 74 | 1018.0 |
| 20260906180557 | 63 | 18 | 1.0 | 4.0 | 0.00 | 0.00 | 0.00 | 74 | 1018.3 |
| 20260906180056 | 62 | 204 | 1.0 | 2.0 | 0.00 | 0.00 | 0.00 | 75 | 1018.1 |
| 20260906175555 | 62 | 310 | 2.0 | 3.0 | 0.00 | 0.00 | 0.00 | 74 | 1018.3 |
| 20260906175050 | 62 | 287 | 2.0 | 3.0 | 0.00 | 0.00 | 0.00 | 74 | 1018.4 |
| 20260906174548 | 62 | 202 | 0.0 | 2.0 | 0.00 | 0.00 | 0.00 | 75 | 1018.4 |
| 20260906174043 | 62 | 219 | 1.0 | 2.0 | 0.00 | 0.00 | 0.00 | 75 | 1018.5 |
| 20260906173538 | 61 | 269 | 1.0 | 3.0 | 0.00 | 0.00 | 0.00 | 76 | 1018.4 |
| 20260906173035 | 61 | 267 | 1.0 | 3.0 | 0.00 | 0.00 | 0.00 | 77 | 1018.6 |
| 20260906172534 | 60 | 216 | 1.0 | 2.0 | 0.00 | 0.00 | 0.00 | 77 | 1018.7 |
| 20260906172030 | 60 | 210 | 1.0 | 4.0 | 0.00 | 0.00 | 0.00 | 77 | 1018.7 |
| 20260906171525 | 60 | 308 | 2.0 | 3.0 | 0.00 | 0.00 | 0.00 | 78 | 1018.8 |
| 20260906171020 | 60 | 199 | 1.0 | 2.0 | 0.00 | 0.00 | 0.00 | 78 | 1018.9 |
| 20260906170516 | 60 | 221 | 2.0 | 4.0 | 0.00 | 0.00 | 0.00 | 78 | 1018.9 |
| 20260906170015 | 59 | 202 | 1.0 | 2.0 | 0.00 | 0.00 | 0.00 | 79 | 1018.9 |
| 20260906165512 | 59 | 234 | 2.0 | 6.0 | 0.00 | 0.00 | 0.00 | 78 | 1018.8 |
| 20260906165007 | 59 | 211 | 1.0 | 6.0 | 0.00 | 0.00 | 0.00 | 78 | 1018.9 |
| 20260906164506 | 59 | 211 | 0.0 | 2.0 | 0.00 | 0.00 | 0.00 | 79 | 1019.1 |
| 20260906164002 | 59 | 281 | 2.0 | 3.0 | 0.00 | 0.00 | 0.00 | 79 | 1019.1 |
| 20260906163457 | 59 | 190 | 1.0 | 4.0 | 0.00 | 0.00 | 0.00 | 79 | 1019.1 |
| 20260906162956 | 59 | 205 | 1.0 | 3.0 | 0.00 | 0.00 | 0.00 | 80 | 1018.9 |
| 20260906162454 | 59 | 212 | 1.0 | 3.0 | 0.00 | 0.00 | 0.00 | 81 | 1018.9 |
| 20260906161949 | 59 | 220 | 2.0 | 4.0 | 0.00 | 0.00 | 0.00 | 81 | 1019.1 |
| 20260906161443 | 59 | 279 | 2.0 | 4.0 | 0.00 | 0.00 | 0.00 | 81 | 1019.3 |
| 20260906160943 | 59 | 229 | 2.0 | 6.0 | 0.00 | 0.00 | 0.00 | 82 | 1019.2 |
| 20260906160436 | 59 | 300 | 4.0 | 4.0 | 0.00 | 0.00 | 0.00 | 84 | 1019.4 |
| 20260906155935 | 59 | 281 | 1.0 | 2.0 | 0.00 | 0.00 | 0.00 | 86 | 1019.4 |
| 20260906155434 | 59 | 203 | 1.0 | 3.0 | 0.00 | 0.00 | 0.00 | 86 | 1019.5 |
| 20260906154930 | 59 | 206 | 1.0 | 3.0 | 0.00 | 0.00 | 0.00 | 87 | 1019.6 |
| 20260906154431 | 59 | 204 | 1.0 | 3.0 | 0.00 | 0.00 | 0.00 | 87 | 1019.5 |
| 20260906153929 | 59 | 181 | 2.0 | 6.0 | 0.00 | 0.00 | 0.00 | 88 | 1019.4 |
| 20260906153428 | 59 | 207 | 1.0 | 2.0 | 0.00 | 0.00 | 0.00 | 88 | 1019.3 |
| 20260906152923 | 59 | 233 | 1.0 | 2.0 | 0.00 | 0.00 | 0.00 | 89 | 1019.6 |
| 20260906152418 | 59 | 186 | 3.0 | 3.0 | 0.00 | 0.00 | 0.00 | 90 | 1019.5 |
| 20260906151917 | 59 | 199 | 1.0 | 2.0 | 0.00 | 0.00 | 0.00 | 90 | 1019.7 |
| 20260906151413 | 59 | 187 | 1.0 | 1.0 | 0.00 | 0.00 | 0.00 | 91 | 1019.5 |
| 20260906150909 | 59 | 195 | 2.0 | 2.0 | 0.00 | 0.00 | 0.00 | 91 | 1019.6 |
| 20260906150409 | 59 | 202 | 2.0 | 3.0 | 0.00 | 0.00 | 0.00 | 91 | 1019.7 |
| 20260906145908 | 59 | 199 | 1.0 | 1.0 | 0.00 | 0.00 | 0.00 | 91 | 1019.5 |
| 20260906145407 | 59 | 184 | 2.0 | 4.0 | 0.00 | 0.00 | 0.00 | 91 | 1019.6 |
| 20260906144902 | 58 | 181 | 3.0 | 6.0 | 0.00 | 0.00 | 0.00 | 91 | 1020.0 |
| 20260906144357 | 58 | 207 | 2.0 | 4.0 | 0.00 | 0.00 | 0.00 | 91 | 1019.9 |
| 20260906143852 | 59 | 217 | 2.0 | 4.0 | 0.00 | 0.00 | 0.00 | 90 | 1019.8 |
| 20260906143348 | 59 | 199 | 2.0 | 4.0 | 0.00 | 0.00 | 0.00 | 89 | 1019.6 |
| 20260906142844 | 59 | 192 | 1.0 | 1.0 | 0.00 | 0.00 | 0.00 | 88 | 1019.7 |
| 20260906142338 | 59 | 192 | 2.0 | 2.0 | 0.00 | 0.00 | 0.00 | 87 | 1019.9 |
| 20260906141838 | 59 | 198 | 1.0 | 4.0 | 0.00 | 0.00 | 0.00 | 87 | 1019.8 |
| 20260906141333 | 59 | 205 | 4.0 | 6.0 | 0.00 | 0.00 | 0.00 | 86 | 1019.9 |
| 20260906140832 | 59 | 189 | 4.0 | 7.0 | 0.00 | 0.00 | 0.00 | 86 | 1020.0 |
| 20260906140322 | 59 | 193 | 2.0 | 3.0 | 0.00 | 0.00 | 0.00 | 86 | 1019.7 |
| 20260906135819 | 59 | 215 | 2.0 | 4.0 | 0.00 | 0.00 | 0.00 | 86 | 1019.8 |
| 20260906135314 | 59 | 199 | 4.0 | 6.0 | 0.00 | 0.00 | 0.00 | 85 | 1019.8 |
| 20260906134809 | 59 | 208 | 1.0 | 2.0 | 0.00 | 0.00 | 0.00 | 85 | 1019.7 |
| 20260906134304 | 59 | 196 | 4.0 | 6.0 | 0.00 | 0.00 | 0.00 | 84 | 1019.8 |
| 20260906133800 | 60 | 197 | 5.0 | 7.0 | 0.00 | 0.00 | 0.00 | 82 | 1019.7 |
| 20260906133255 | 60 | 206 | 3.0 | 4.0 | 0.00 | 0.00 | 0.00 | 79 | 1019.7 |
| 20260906132751 | 60 | 206 | 1.0 | 1.0 | 0.00 | 0.00 | 0.00 | 79 | 1019.6 |
| 20260906132246 | 60 | 211 | 1.0 | 1.0 | 0.00 | 0.00 | 0.00 | 79 | 1019.6 |
| 20260906131741 | 60 | 204 | 3.0 | 3.0 | 0.00 | 0.00 | 0.00 | 79 | 1019.9 |
| 20260906131236 | 60 | 199 | 1.0 | 2.0 | 0.00 | 0.00 | 0.00 | 79 | 1019.8 |
| 20260906130732 | 60 | 200 | 2.0 | 2.0 | 0.00 | 0.00 | 0.00 | 79 | 1019.6 |
| 20260906130227 | 60 | 188 | 1.0 | 2.0 | 0.00 | 0.00 | 0.00 | 79 | 1019.7 |
| 20260906125725 | 60 | 182 | 1.0 | 2.0 | 0.00 | 0.00 | 0.00 | 80 | 1019.6 |
| 20260906125223 | 60 | 191 | 2.0 | 2.0 | 0.00 | 0.00 | 0.00 | 80 | 1019.8 |
| 20260906124718 | 60 | 193 | 1.0 | 2.0 | 0.00 | 0.00 | 0.00 | 79 | 1019.5 |
| 20260906124214 | 60 | 195 | 1.0 | 2.0 | 0.00 | 0.00 | 0.00 | 79 | 1019.6 |
| 20260906123712 | 60 | 186 | 0.0 | 0.0 | 0.00 | 0.00 | 0.00 | 80 | 1019.7 |
| 20260906123208 | 60 | 166 | 0.0 | 0.0 | 0.00 | 0.00 | 0.00 | 79 | 1019.5 |
| 20260906122707 | 60 | 64 | 1.0 | 2.0 | 0.00 | 0.00 | 0.00 | 79 | 1019.2 |
| 20260906122202 | 60 | 178 | 0.0 | 0.0 | 0.00 | 0.00 | 0.00 | 79 | 1019.7 |
| 20260906121659 | 60 | 189 | 0.0 | 1.0 | 0.00 | 0.00 | 0.00 | 79 | 1019.6 |
| 20260906121155 | 60 | 182 | 0.0 | 1.0 | 0.00 | 0.00 | 0.00 | 79 | 1019.6 |
| 20260906120650 | 60 | 180 | 0.0 | 0.0 | 0.00 | 0.00 | 0.00 | 80 | 1019.3 |
| 20260906120147 | 60 | 153 | 0.0 | 0.0 | 0.00 | 0.00 | 0.00 | 80 | 1019.2 |
| 20260906115648 | 60 | 143 | 0.0 | 0.0 | 0.00 | 0.00 | 0.00 | 79 | 1019.2 |
| 20260906115143 | 60 | 143 | 0.0 | 0.0 | 0.00 | 0.00 | 0.00 | 80 | 1019.1 |
| 20260906114642 | 60 | 155 | 0.0 | 1.0 | 0.00 | 0.00 | 0.00 | 79 | 1019.1 |
| 20260906114137 | 60 | 163 | 0.0 | 0.0 | 0.00 | 0.00 | 0.00 | 79 | 1019.2 |
| 20260906113632 | 60 | 150 | 0.0 | 1.0 | 0.00 | 0.00 | 0.00 | 79 | 1019.2 |
| 20260906113132 | 60 | 69 | 2.0 | 3.0 | 0.00 | 0.00 | 0.00 | 79 | 1019.1 |
| 20260906112631 | 60 | 9 | 1.0 | 2.0 | 0.00 | 0.00 | 0.00 | 79 | 1019.2 |
| 20260906112129 | 60 | 130 | 0.0 | 1.0 | 0.00 | 0.00 | 0.00 | 78 | 1019.4 |
| 20260906111628 | 60 | 55 | 1.0 | 1.0 | 0.00 | 0.00 | 0.00 | 78 | 1019.2 |
| 20260906111123 | 60 | 126 | 0.0 | 1.0 | 0.00 | 0.00 | 0.00 | 78 | 1019.1 |
| 20260906110618 | 60 | 346 | 0.0 | 2.0 | 0.00 | 0.00 | 0.00 | 78 | 1019.1 |
| 20260906110118 | 60 | 46 | 1.0 | 2.0 | 0.00 | 0.00 | 0.00 | 78 | 1019.2 |
| 20260906105612 | 60 | 119 | 1.0 | 2.0 | 0.00 | 0.00 | 0.00 | 78 | 1019.3 |
| 20260906105108 | 60 | 21 | 4.0 | 4.0 | 0.00 | 0.00 | 0.00 | 77 | 1019.2 |
| 20260906104608 | 60 | 100 | 1.0 | 3.0 | 0.00 | 0.00 | 0.00 | 78 | 1019.4 |
| 20260906104101 | 60 | 140 | 0.0 | 1.0 | 0.00 | 0.00 | 0.00 | 77 | 1019.4 |
| 20260906103600 | 60 | 28 | 1.0 | 2.0 | 0.00 | 0.00 | 0.00 | 77 | 1019.4 |
| 20260906103055 | 60 | 31 | 2.0 | 2.0 | 0.00 | 0.00 | 0.00 | 77 | 1019.3 |
| 20260906102555 | 60 | 22 | 2.0 | 3.0 | 0.00 | 0.00 | 0.00 | 77 | 1019.4 |
| 20260906102050 | 60 | 49 | 1.0 | 3.0 | 0.00 | 0.00 | 0.00 | 76 | 1019.3 |
| 20260906101544 | 60 | 355 | 1.0 | 2.0 | 0.00 | 0.00 | 0.00 | 76 | 1019.3 |
| 20260906101040 | 60 | 359 | 2.0 | 3.0 | 0.00 | 0.00 | 0.00 | 76 | 1019.4 |
| 20260906100536 | 60 | 21 | 1.0 | 2.0 | 0.00 | 0.00 | 0.00 | 75 | 1019.7 |
| 20260906100035 | 60 | 41 | 0.0 | 3.0 | 0.00 | 0.00 | 0.00 | 75 | 1019.6 |
| 20260906095529 | 60 | 350 | 2.0 | 4.0 | 0.00 | 0.00 | 0.00 | 75 | 1019.5 |
| 20260906095025 | 60 | 32 | 2.0 | 4.0 | 0.00 | 0.00 | 0.00 | 74 | 1019.3 |
| 20260906094524 | 60 | 128 | 0.0 | 3.0 | 0.00 | 0.00 | 0.00 | 74 | 1019.2 |
| 20260906094020 | 60 | 84 | 1.0 | 6.0 | 0.00 | 0.00 | 0.00 | 74 | 1019.3 |
| 20260906093516 | 60 | 340 | 2.0 | 2.0 | 0.00 | 0.00 | 0.00 | 74 | 1019.1 |
| 20260906093011 | 60 | 28 | 2.0 | 6.0 | 0.00 | 0.00 | 0.00 | 74 | 1019.1 |
| 20260906092511 | 61 | 5 | 3.0 | 4.0 | 0.00 | 0.00 | 0.00 | 73 | 1018.7 |
| 20260906092006 | 61 | 358 | 2.0 | 3.0 | 0.00 | 0.00 | 0.00 | 73 | 1018.9 |
| 20260906091501 | 61 | 152 | 0.0 | 1.0 | 0.00 | 0.00 | 0.00 | 73 | 1018.8 |
| 20260906090958 | 61 | 67 | 2.0 | 3.0 | 0.00 | 0.00 | 0.00 | 73 | 1019.1 |
| 20260906090453 | 61 | 338 | 2.0 | 3.0 | 0.00 | 0.00 | 0.00 | 73 | 1018.9 |
| 20260906085953 | 61 | 17 | 3.0 | 3.0 | 0.00 | 0.00 | 0.00 | 73 | 1018.9 |
| 20260906085452 | 61 | 13 | 2.0 | 2.0 | 0.00 | 0.00 | 0.00 | 73 | 1018.8 |
| 20260906084951 | 61 | 110 | 1.0 | 1.0 | 0.00 | 0.00 | 0.00 | 73 | 1019.1 |
| 20260906084446 | 61 | 93 | 1.0 | 1.0 | 0.00 | 0.00 | 0.00 | 72 | 1018.9 |
| 20260906083945 | 61 | 116 | 0.0 | 0.0 | 0.00 | 0.00 | 0.00 | 73 | 1019.5 |
| 20260906083441 | 61 | 109 | 0.0 | 1.0 | 0.00 | 0.00 | 0.00 | 72 | 1019.3 |
| 20260906082940 | 61 | 103 | 0.0 | 2.0 | 0.00 | 0.00 | 0.00 | 72 | 1019.3 |
| 20260906082436 | 61 | 105 | 0.0 | 1.0 | 0.00 | 0.00 | 0.00 | 72 | 1019.4 |
| 20260906081931 | 61 | 130 | 0.0 | 1.0 | 0.00 | 0.00 | 0.00 | 72 | 1019.5 |
| 20260906081426 | 61 | 2 | 0.0 | 1.0 | 0.00 | 0.00 | 0.00 | 72 | 1019.6 |
| 20260906080923 | 61 | 104 | 1.0 | 1.0 | 0.00 | 0.00 | 0.00 | 72 | 1019.8 |
| 20260906080419 | 61 | 87 | 1.0 | 2.0 | 0.00 | 0.00 | 0.00 | 72 | 1019.8 |
| 20260906075919 | 62 | 106 | 1.0 | 3.0 | 0.00 | 0.00 | 0.00 | 71 | 1019.7 |
| 20260906075414 | 62 | 94 | 1.0 | 1.0 | 0.00 | 0.00 | 0.00 | 71 | 1019.8 |
| 20260906074909 | 62 | 49 | 1.0 | 2.0 | 0.00 | 0.00 | 0.00 | 71 | 1019.9 |
| 20260906074408 | 62 | 73 | 1.0 | 2.0 | 0.00 | 0.00 | 0.00 | 70 | 1020.1 |
| 20260906073907 | 62 | 152 | 0.0 | 2.0 | 0.00 | 0.00 | 0.00 | 70 | 1020.2 |
| 20260906073402 | 62 | 156 | 0.0 | 1.0 | 0.00 | 0.00 | 0.00 | 70 | 1020.4 |
| 20260906072859 | 62 | 63 | 1.0 | 2.0 | 0.00 | 0.00 | 0.00 | 70 | 1020.2 |
| 20260906072354 | 62 | 147 | 0.0 | 0.0 | 0.00 | 0.00 | 0.00 | 70 | 1020.5 |
| 20260906071850 | 62 | 176 | 0.0 | 0.0 | 0.00 | 0.00 | 0.00 | 70 | 1020.5 |
| 20260906071345 | 62 | 169 | 0.0 | 0.0 | 0.00 | 0.00 | 0.00 | 70 | 1020.5 |
| 20260906070841 | 62 | 179 | 0.0 | 0.0 | 0.00 | 0.00 | 0.00 | 70 | 1020.6 |
| 20260906070337 | 62 | 187 | 0.0 | 0.0 | 0.00 | 0.00 | 0.00 | 69 | 1020.6 |
| 20260906065832 | 61 | 188 | 0.0 | 0.0 | 0.00 | 0.00 | 0.00 | 69 | 1020.4 |
| 20260906065326 | 61 | 188 | 0.0 | 0.0 | 0.00 | 0.00 | 0.00 | 69 | 1020.6 |
| 20260906064823 | 61 | 188 | 0.0 | 1.0 | 0.00 | 0.00 | 0.00 | 69 | 1020.6 |
| 20260906064319 | 60 | 188 | 1.0 | 1.0 | 0.00 | 0.00 | 0.00 | 69 | 1020.6 |
| 20260906063818 | 60 | 191 | 0.0 | 1.0 | 0.00 | 0.00 | 0.00 | 70 | 1020.6 |
| 20260906063314 | 60 | 194 | 0.0 | 0.0 | 0.00 | 0.00 | 0.00 | 69 | 1020.4 |
| 20260906062809 | 60 | 195 | 1.0 | 2.0 | 0.00 | 0.00 | 0.00 | 69 | 1020.5 |
| 20260906062308 | 60 | 190 | 0.0 | 1.0 | 0.00 | 0.00 | 0.00 | 69 | 1020.5 |
| 20260906061804 | 60 | 195 | 0.0 | 0.0 | 0.00 | 0.00 | 0.00 | 70 | 1020.6 |
| 20260906061300 | 60 | 200 | 1.0 | 2.0 | 0.00 | 0.00 | 0.00 | 69 | 1020.6 |
| 20260906060755 | 60 | 196 | 1.0 | 1.0 | 0.00 | 0.00 | 0.00 | 69 | 1020.7 |
| 20260906060253 | 59 | 185 | 0.0 | 1.0 | 0.00 | 0.00 | 0.00 | 70 | 1020.6 |
| 20260906055748 | 59 | 193 | 1.0 | 1.0 | 0.00 | 0.00 | 0.00 | 71 | 1020.7 |
| 20260906055243 | 59 | 193 | 0.0 | 0.0 | 0.00 | 0.00 | 0.00 | 70 | 1020.6 |
| 20260906054738 | 59 | 190 | 0.0 | 0.0 | 0.00 | 0.00 | 0.00 | 70 | 1020.4 |
| 20260906054234 | 60 | 197 | 0.0 | 1.0 | 0.00 | 0.00 | 0.00 | 69 | 1020.2 |
| 20260906053730 | 60 | 185 | 0.0 | 0.0 | 0.00 | 0.00 | 0.00 | 69 | 1020.5 |
| 20260906053226 | 60 | 186 | 0.0 | 1.0 | 0.00 | 0.00 | 0.00 | 69 | 1020.1 |
| 20260906052721 | 60 | 190 | 0.0 | 0.0 | 0.00 | 0.00 | 0.00 | 69 | 1020.1 |
| 20260906052217 | 60 | 192 | 0.0 | 0.0 | 0.00 | 0.00 | 0.00 | 68 | 1020.2 |
| 20260906051714 | 61 | 196 | 0.0 | 0.0 | 0.00 | 0.00 | 0.00 | 67 | 1020.1 |
| 20260906051213 | 61 | 198 | 1.0 | 1.0 | 0.00 | 0.00 | 0.00 | 66 | 1019.8 |
| 20260906050708 | 61 | 208 | 2.0 | 2.0 | 0.00 | 0.00 | 0.00 | 66 | 1020.0 |
| 20260906050203 | 61 | 191 | 0.0 | 0.0 | 0.00 | 0.00 | 0.00 | 67 | 1020.0 |
| 20260906045702 | 62 | 187 | 0.0 | 0.0 | 0.00 | 0.00 | 0.00 | 66 | 1020.0 |
| 20260906045157 | 62 | 188 | 0.0 | 0.0 | 0.00 | 0.00 | 0.00 | 66 | 1019.9 |
| 20260906044653 | 62 | 186 | 0.0 | 0.0 | 0.00 | 0.00 | 0.00 | 65 | 1020.0 |
| 20260906044148 | 62 | 70 | 0.0 | 1.0 | 0.00 | 0.00 | 0.00 | 65 | 1019.8 |
| 20260906043644 | 63 | 198 | 1.0 | 1.0 | 0.00 | 0.00 | 0.00 | 64 | 1019.8 |
| 20260906043140 | 63 | 223 | 0.0 | 1.0 | 0.00 | 0.00 | 0.00 | 64 | 1019.9 |
| 20260906042639 | 63 | 183 | 0.0 | 0.0 | 0.00 | 0.00 | 0.00 | 63 | 1020.0 |
| 20260906042133 | 63 | 291 | 2.0 | 2.0 | 0.00 | 0.00 | 0.00 | 63 | 1019.6 |
| 20260906041629 | 64 | 355 | 2.0 | 3.0 | 0.00 | 0.00 | 0.00 | 63 | 1019.4 |
| 20260906041130 | 64 | 78 | 1.0 | 4.0 | 0.00 | 0.00 | 0.00 | 63 | 1019.2 |
| 20260906040625 | 64 | 28 | 3.0 | 4.0 | 0.00 | 0.00 | 0.00 | 62 | 1019.1 |
| 20260906040121 | 64 | 72 | 1.0 | 4.0 | 0.00 | 0.00 | 0.00 | 62 | 1019.3 |
| 20260906035616 | 64 | 85 | 2.0 | 4.0 | 0.00 | 0.00 | 0.00 | 61 | 1019.3 |
| 20260906035112 | 64 | 338 | 2.0 | 6.0 | 0.00 | 0.00 | 0.00 | 61 | 1019.4 |
| 20260906034611 | 65 | 33 | 3.0 | 6.0 | 0.00 | 0.00 | 0.00 | 60 | 1019.3 |
| 20260906034106 | 65 | 336 | 1.0 | 8.0 | 0.00 | 0.00 | 0.00 | 60 | 1018.9 |
| 20260906033602 | 65 | 20 | 2.0 | 8.0 | 0.00 | 0.00 | 0.00 | 59 | 1019.1 |
| 20260906033057 | 65 | 24 | 4.0 | 7.0 | 0.00 | 0.00 | 0.00 | 58 | 1018.9 |
| 20260906032554 | 65 | 17 | 5.0 | 7.0 | 0.00 | 0.00 | 0.00 | 58 | 1018.8 |
| 20260906032053 | 66 | 56 | 3.0 | 7.0 | 0.00 | 0.00 | 0.00 | 57 | 1018.9 |
| 20260906031549 | 66 | 72 | 1.0 | 6.0 | 0.00 | 0.00 | 0.00 | 57 | 1018.8 |
| 20260906031044 | 66 | 324 | 2.0 | 7.0 | 0.00 | 0.00 | 0.00 | 57 | 1018.7 |
| 20260906030544 | 66 | 5 | 2.0 | 6.0 | 0.00 | 0.00 | 0.00 | 56 | 1018.7 |
| 20260906030044 | 67 | 55 | 3.0 | 10.0 | 0.00 | 0.00 | 0.00 | 55 | 1018.4 |
| 20260906025544 | 67 | 35 | 3.0 | 6.0 | 0.00 | 0.00 | 0.00 | 55 | 1018.6 |
| 20260906025042 | 68 | 10 | 3.0 | 9.0 | 0.00 | 0.00 | 0.00 | 54 | 1018.3 |
| 20260906024537 | 68 | 40 | 5.0 | 7.0 | 0.00 | 0.00 | 0.00 | 53 | 1018.1 |
| 20260906024037 | 68 | 66 | 4.0 | 8.0 | 0.00 | 0.00 | 0.00 | 52 | 1018.0 |
| 20260906023533 | 69 | 69 | 4.0 | 9.0 | 0.00 | 0.00 | 0.00 | 50 | 1017.7 |
| 20260906023028 | 70 | 351 | 6.0 | 11.0 | 0.00 | 0.00 | 0.00 | 49 | 1017.5 |
| 20260906022523 | 70 | 48 | 6.0 | 19.0 | 0.00 | 0.00 | 0.00 | 47 | 1017.3 |
| 20260906022019 | 71 | 351 | 6.0 | 16.0 | 0.00 | 0.00 | 0.00 | 46 | 1017.3 |
| 20260906021515 | 74 | 346 | 6.0 | 15.0 | 0.00 | 0.00 | 0.00 | 41 | 1017.2 |
| 20260906021008 | 74 | 63 | 5.0 | 8.0 | 0.00 | 0.00 | 0.00 | 36 | 1017.0 |
| 20260906020508 | 74 | 30 | 2.0 | 4.0 | 0.00 | 0.00 | 0.00 | 37 | 1016.9 |
| 20260906020007 | 75 | 11 | 4.0 | 4.0 | 0.00 | 0.00 | 0.00 | 36 | 1017.0 |
| 20260906015506 | 75 | 28 | 4.0 | 6.0 | 0.00 | 0.00 | 0.00 | 36 | 1016.7 |
| 20260906015007 | 75 | 48 | 2.0 | 4.0 | 0.00 | 0.00 | 0.00 | 36 | 1016.8 |
| 20260906014501 | 76 | 5 | 1.0 | 6.0 | 0.00 | 0.00 | 0.00 | 35 | 1016.7 |
| 20260906013957 | 76 | 17 | 2.0 | 6.0 | 0.00 | 0.00 | 0.00 | 35 | 1016.6 |
| 20260906013452 | 76 | 54 | 2.0 | 6.0 | 0.00 | 0.00 | 0.00 | 35 | 1016.5 |
| 20260906012943 | 76 | 30 | 6.0 | 7.0 | 0.00 | 0.00 | 0.00 | 35 | 1016.7 |
| 20260906012442 | 77 | 339 | 4.0 | 6.0 | 0.00 | 0.00 | 0.00 | 34 | 1016.6 |
| 20260906011942 | 77 | 98 | 3.0 | 10.0 | 0.00 | 0.00 | 0.00 | 34 | 1016.6 |
| 20260906011437 | 77 | 334 | 4.0 | 6.0 | 0.00 | 0.00 | 0.00 | 34 | 1016.6 |
| 20260906010932 | 77 | 65 | 1.0 | 4.0 | 0.00 | 0.00 | 0.00 | 34 | 1016.8 |
| 20260906010428 | 78 | 16 | 5.0 | 8.0 | 0.00 | 0.00 | 0.00 | 33 | 1016.8 |
| 20260906005924 | 78 | 32 | 5.0 | 9.0 | 0.00 | 0.00 | 0.00 | 33 | 1016.6 |
| 20260906005423 | 78 | 40 | 3.0 | 4.0 | 0.00 | 0.00 | 0.00 | 33 | 1016.8 |
| 20260906004921 | 79 | 29 | 2.0 | 8.0 | 0.00 | 0.00 | 0.00 | 33 | 1016.8 |
| 20260906004416 | 79 | 37 | 3.0 | 7.0 | 0.00 | 0.00 | 0.00 | 32 | 1016.8 |
| 20260906003912 | 79 | 355 | 4.0 | 6.0 | 0.00 | 0.00 | 0.00 | 33 | 1016.7 |
| 20260906003407 | 79 | 43 | 5.0 | 7.0 | 0.00 | 0.00 | 0.00 | 32 | 1016.7 |
| 20260906002902 | 79 | 74 | 4.0 | 8.0 | 0.00 | 0.00 | 0.00 | 33 | 1016.8 |
| 20260906002401 | 79 | 102 | 1.0 | 2.0 | 0.00 | 0.00 | 0.00 | 33 | 1016.7 |
| 20260906001857 | 79 | 41 | 4.0 | 8.0 | 0.00 | 0.00 | 0.00 | 32 | 1016.8 |
| 20260906001354 | 79 | 53 | 3.0 | 3.0 | 0.00 | 0.00 | 0.00 | 32 | 1016.9 |
| 20260906000854 | 80 | 43 | 4.0 | 8.0 | 0.00 | 0.00 | 0.00 | 31 | 1017.1 |
| 20260906000355 | 79 | 49 | 3.0 | 7.0 | 0.00 | 0.00 | 0.00 | 32 | 1016.9 |
| 20260905235848 | 79 | 23 | 3.0 | 3.0 | 0.00 | 0.00 | 0.00 | 32 | 1016.8 |
| 20260905235342 | 79 | 351 | 3.0 | 6.0 | 0.00 | 0.00 | 0.00 | 31 | 1017.0 |
| 20260905234838 | 79 | 359 | 3.0 | 3.0 | 0.00 | 0.00 | 0.00 | 31 | 1017.1 |
| 20260905234333 | 80 | 333 | 5.0 | 9.0 | 0.00 | 0.00 | 0.00 | 31 | 1016.9 |
| 20260905233828 | 80 | 9 | 3.0 | 7.0 | 0.00 | 0.00 | 0.00 | 31 | 1017.0 |
| 20260905233323 | 80 | 85 | 3.0 | 4.0 | 0.00 | 0.00 | 0.00 | 30 | 1017.1 |
| 20260905232822 | 80 | 344 | 1.0 | 6.0 | 0.00 | 0.00 | 0.00 | 32 | 1017.0 |
| 20260905232319 | 80 | 45 | 1.0 | 2.0 | 0.00 | 0.00 | 0.00 | 31 | 1016.8 |
| 20260905231814 | 80 | 61 | 3.0 | 6.0 | 0.00 | 0.00 | 0.00 | 31 | 1017.0 |
| 20260905231309 | 79 | 348 | 3.0 | 7.0 | 0.00 | 0.00 | 0.00 | 31 | 1017.0 |
| 20260905230805 | 79 | 17 | 3.0 | 6.0 | 0.00 | 0.00 | 0.00 | 32 | 1017.0 |
| 20260905230303 | 79 | 29 | 3.0 | 7.0 | 0.00 | 0.00 | 0.00 | 31 | 1017.3 |
| 20260905225803 | 79 | 9 | 6.0 | 8.0 | 0.00 | 0.00 | 0.00 | 31 | 1017.1 |
| 20260905225258 | 79 | 61 | 4.0 | 9.0 | 0.00 | 0.00 | 0.00 | 32 | 1017.3 |